Regional Weather Roundup
Issued by NWS

Home | Current Version | Previous Version | Graphics & Text | Print | Product List | Glossary On
Versions: 1 2 3 4 5 6 7 8 9 10 11 12 13 14 15 16 17 18 19 20 21 22 23 24 25 26 27 28 29 30 31 32 33 34 35 36 37 38 39 40 41 42 43 44 45 46 47 48 49 50
000
ASUS43 KDMX 200601
RWRIA

WEATHER ROUNDUP FOR IOWA
NATIONAL WEATHER SERVICE DES MOINES IA
100 AM CDT THU JUL 20 2017

NOTE: "FAIR" INDICATES FEW OR NO CLOUDS BELOW 12,000 FEET WITH NO
SIGNIFICANT WEATHER AND/OR OBSTRUCTIONS TO VISIBILITY.

* - THESE STATIONS ARE NOT NWS STATIONS...THUS NOT UNDER NWS
QUALITY CONTROL.  THEY ALSO DO NOT REPORT WEATHER SUCH
AS PRECIPITATION OR FOG.

IAZ001>003-012>014-020>022-031>034-043>046-200700-
   NORTHWEST IOWA

CITY           SKY/WX    TMP DP  RH WIND       PRES   REMARKS
CARROLL *      CLOUDY    84  75  74 SW15G25   29.90R HX  92
CHEROKEE *     CLOUDY    80  77  89 NE3       29.89R HX  87
DENISON *      CLOUDY    82  75  78 S9G21     29.91R HX  89
ORANGE CITY *  MOCLDY    82  75  78 CALM      29.91R HX  89
SHELDON *      MOCLDY    75  73  94 CALM      29.89S
SIOUX CITY     CLOUDY    88  74  63 VRB6      29.86R HX  96
6HR MIN TEMP:  83; 6HR MAX TEMP:  91; 6HR PCP:  0.02;

SPENCER        CLOUDY    75  74  96 S3        29.88F
6HR MIN TEMP:  74; 6HR MAX TEMP:  87;

STORM LAKE *   CLOUDY    82  75  78 SW6       29.91R HX  89
$$

IAZ055>058-069>071-079>083-090>094-200700-
   SOUTHWEST IOWA

CITY           SKY/WX    TMP DP  RH WIND       PRES   REMARKS
ATLANTIC *     MOCLDY    81  75  83 S13G20    29.94F HX  86
AUDUBON *      CLOUDY    82  75  78 S15G24    29.93F HX  89
CLARINDA *       N/A     79  73  83 S8G14     29.99F HX  82
COUNCIL BLFS * CLOUDY    82  73  74 S13G18    29.96S HX  88
CRESTON *      CLOUDY    79  75  89 S15       29.99F HX  82
HARLAN  *      CLOUDY    81  75  83 S15       29.97F HX  86
LAMONI         CLOUDY    80  75  84 S10       30.01S HX  85
6HR MIN TEMP:  80; 6HR MAX TEMP:  83;

RED OAK *      CLOUDY    81  73  78 S10       29.96F HX  85
SHENANDOAH *   CLOUDY    81  73  78 S9        29.97F HX  85
$$

IAZ047>049-059>061-072>074-084-200700-
   CENTRAL IOWA

CITY           SKY/WX    TMP DP  RH WIND       PRES   REMARKS
AMES           MOCLDY    83  77  82 S10G21    29.92R HX  92
6HR MIN TEMP:  79; 6HR MAX TEMP:  91;

ANKENY *       CLOUDY    84  75  74 S8        29.94R HX  92
BOONE *        CLOUDY    81  77  89 SW8       29.92S HX  88
CHARITON *     CLOUDY    81  75  83 S14G23    29.98S HX  86
DES MOINES     CLOUDY    84  75  74 S13G25    29.92R HX  92
6HR MIN TEMP:  82; 6HR MAX TEMP:  91; 6HR PCP:  0.01;

GRINNELL*      MOCLDY    79  73  83 S12       29.97S HX  82
KNOXVILLE *    CLOUDY    82  73  74 S15G21    29.94S HX  88
MARSHALLTOWN   CLOUDY    81  75  82 S13       29.94R HX  87
6HR MIN TEMP:  76; 6HR MAX TEMP:  89;

NEWTON *       MOCLDY    82  75  78 S14       29.96R HX  89
PELLA *        CLOUDY    82  73  73 S8        29.97R HX  88
PERRY *          N/A     83  77  82 SW14G21   29.91R HX  93
$$

IAZ004>006-015-016-023>025-035-036-200700-
   NORTH CENTRAL IOWA

CITY           SKY/WX    TMP DP  RH WIND       PRES   REMARKS
ALGONA *       CLOUDY    81  79  94 S9        29.89F HX  89
CLARION *      CLOUDY    77  77 100 S3        29.93S
ESTHERVILLE    CLOUDY    71  71 100 S5        29.89F
6HR MIN TEMP:  71; 6HR MAX TEMP:  78;

FORT DODGE *   CLOUDY    81  75  83 S6        29.92F HX  86
MASON CITY     CLOUDY    72  70  93 S7        29.93S
6HR MIN TEMP:  70; 6HR MAX TEMP:  74;

FOREST CITY *    N/A     73  72  94 SE6       29.91F
WEBSTER CITY * CLOUDY    81  75  83 S10G16    29.90F HX  86
IOWA FALLS *     N/A     80  74  84 S9        29.95R HX  84
$$

IAZ007>011-017>019-026>030-037>042-050>054-066-200700-
   NORTHEAST IOWA

CITY           SKY/WX    TMP DP  RH WIND       PRES   REMARKS
CEDAR RAPIDS   CLOUDY    75  73  93 S9        29.98S
6HR MIN TEMP:  72; 6HR MAX TEMP:  86; 6HR PCP:  0.03;

CHARLES CITY * CLOUDY    73  73 100 SE6       29.95S
CLINTON *      CLOUDY    71  68  90 S8        30.02F
DECORAH *      CLOUDY    70  66  88 NE8       29.99R
DUBUQUE        CLOUDY    70  65  84 S12       30.01S
6HR MIN TEMP:  67; 6HR MAX TEMP:  84; 6HR PCP:  1.21;

MONTICELLO *   CLOUDY    73  70  88 SE8       29.99S
OELWEIN *      CLOUDY    75  72  88 S14       29.97S
WATERLOO       CLOUDY    76  70  82 SE10      29.94R
6HR MIN TEMP:  72; 6HR MAX TEMP:  77;

$$

IAZ064-065-067-068-078-200700-
   EAST CENTRAL IOWA

CITY           SKY/WX    TMP DP  RH WIND       PRES   REMARKS
DAVENPORT      CLOUDY    74  68  81 SE9       30.04F
6HR MIN TEMP:  73; 6HR MAX TEMP:  87;

IOWA CITY      CLOUDY    77  72  84 SE8       30.01S
6HR MIN TEMP:  76; 6HR MAX TEMP:  89; 6HR PCP:  0.01;

MUSCATINE *    CLOUDY    79  72  78 SE7G15    30.01S HX  82
QUAD CITIES    CLOUDY    76  68  76 SE7       30.02F
6HR MIN TEMP:  76; 6HR MAX TEMP:  89;

$$

IAZ062-063-075>077-085>089-095>099-200700-
   SOUTHEAST IOWA

CITY           SKY/WX    TMP DP  RH WIND       PRES   REMARKS
BURLINGTON     CLOUDY    79  77  94 S7        30.02S HX  83
6HR MIN TEMP:  79; 6HR MAX TEMP:  88;

FAIRFIELD *    CLOUDY    81  73  78 S9        29.99S HX  85
FORT MADISON * PTCLDY    81  75  83 S6        30.03F HX  86
KEOKUK *       PTCLDY    82  75  78 S6        30.02S HX  89
OSKALOOSA *      N/A     78  74  85 S8        29.98F HX  81
OTTUMWA        CLOUDY    81  76  84 S12       29.96F HX  87
6HR MIN TEMP:  80; 6HR MAX TEMP:  90;

WASHINGTON *   CLOUDY    77  75  94 SE7       30.00F
$$

ABBREVIATIONS USED IN REMARKS
   TC - TEMPERATURES IN CELSIUS
  WCI - WIND CHILL INDEX
   HX - HEAT INDEX
  VSB - VISIBILITY
$$





USA.gov is the U.S. government's official web portal to all federal, state and local government web resources and services.